Wind_Speed
59 60 61 57 57 62 64 64 65 67 68 69 70 71 71 71 71 70 68 66 65 63 62 61 59 58 56 55 54 52 51 50 50 50 52 53 53 54 54 54 54 54 54 55 56 54 52 51 50 48 48 51 53 54 57 59 61 62 63 65 69 72 75 79 78 75 75 72 69 66 65 64 63 60 59 60 60 60 58 54 50 46 45 47 47
61 62 60 57 59 64 65 66 68 68 70 71 72 73 73 73 72 71 70 68 66 64 63 61 60 59 57 56 55 54 53 52 52 52 53 55 56 56 56 57 56 55 55 57 57 56 52 50 50 50 49 50 53 54 56 59 60 62 64 65 69 72 75 79 81 79 78 76 72 70 68 66 65 63 61 61 61 60 59 56 51 47 46 47 48
62 63 61 58 62 66 67 68 70 70 72 73 74 75 75 75 74 72 71 70 68 66 64 63 61 60 59 58 56 55 54 54 53 54 55 56 57 58 58 58 58 58 58 58 58 57 54 51 50 50 50 50 53 54 55 58 60 62 64 65 68 72 75 79 83 83 81 80 76 73 71 68 67 65 64 63 62 61 60 58 53 47 46 47 50
62 65 62 59 63 69 69 70 71 72 73 74 75 76 76 76 76 73 71 69 68 66 65 63 62 61 60 58 57 56 55 54 54 55 55 57 59 60 59 60 61 61 58 57 58 57 55 53 51 50 51 51 52 53 54 56 59 62 64 65 67 72 76 79 84 86 85 83 81 77 75 72 69 67 66 64 63 62 60 59 57 52 46 46 49
64 64 58 56 64 72 72 72 73 73 75 76 77 78 78 78 77 75 72 70 68 67 65 64 63 61 60 58 56 55 54 54 55 55 55 56 58 60 61 61 64 64 61 58 58 57 55 54 52 51 50 50 51 52 53 55 58 61 64 65 67 71 77 80 83 87 88 87 85 82 79 76 72 68 67 66 65 64 62 61 61 58 50 45 47
64 57 51 55 67 74 74 74 74 74 76 77 78 79 79 79 78 76 74 71 69 67 65 64 62 60 59 56 55 53 53 54 55 55 55 56 58 60 61 62 65 67 67 65 62 60 57 55 53 51 50 50 50 51 52 54 57 60 63 65 66 70 76 81 84 88 90 90 89 86 82 79 75 70 67 67 67 66 64 63 63 61 55 50 49
61 55 54 60 70 75 75 74 74 75 77 78 80 80 80 81 80 78 75 73 70 68 66 64 62 60 58 56 54 53 53 55 56 55 56 57 58 60 61 62 65 67 67 67 64 61 59 56 53 51 49 48 48 49 52 54 56 59 62 65 66 69 75 81 85 89 91 92 91 89 86 83 78 73 70 67 67 67 65 65 64 63 60 56 53
60 59 62 67 74 77 75 74 75 76 78 80 81 82 82 82 81 79 77 74 71 70 67 64 62 60 59 57 55 54 55 56 57 57 57 58 58 59 60 62 64 65 65 64 62 60 57 55 52 49 47 47 47 48 51 53 55 58 61 64 66 68 73 81 86 90 93 94 92 90 89 86 80 77 74 68 65 66 67 68 67 66 63 59 56
58 60 65 72 78 79 77 76 77 78 81 83 83 84 84 83 82 80 77 75 73 71 68 66 63 61 60 58 56 56 57 58 59 58 58 58 58 60 62 63 63 63 62 61 59 56 54 52 49 47 46 45 46 47 49 52 55 57 59 62 65 68 72 80 87 91 94 95 93 90 89 86 82 80 78 72 67 67 69 69 68 66 64 61 58
55 61 71 78 81 80 79 79 79 81 84 85 86 86 86 85 84 81 79 77 74 71 68 66 64 61 59 58 57 57 58 60 61 61 60 60 61 63 64 64 63 62 60 58 55 51 49 48 46 44 44 44 44 45 48 51 53 55 57 60 64 67 71 78 86 91 95 96 95 92 90 87 84 82 80 76 73 70 69 68 67 67 64 62 60
62 71 79 81 81 81 81 81 81 83 86 87 88 88 87 87 85 82 80 76 72 69 67 64 62 61 59 59 58 58 59 61 62 62 62 63 66 67 65 64 63 61 59 56 52 48 45 44 43 42 42 42 42 43 45 49 51 52 54 58 62 66 71 76 84 90 94 96 97 95 92 88 85 83 81 78 75 72 69 66 66 66 63 62 61
73 77 80 80 81 82 82 82 83 85 87 88 89 89 89 88 86 83 79 75 71 69 66 62 62 62 61 60 60 59 60 62 63 62 63 67 70 69 67 65 63 61 58 54 50 45 42 41 40 39 39 39 39 40 42 45 48 50 53 56 60 65 69 74 81 88 93 96 97 97 94 91 87 84 82 80 76 73 69 65 65 65 63 62 62
77 79 80 81 82 82 83 83 85 86 87 89 90 91 91 89 86 82 78 73 70 69 65 63 64 63 61 61 61 60 61 63 63 63 66 70 71 70 68 66 63 60 56 51 47 43 40 39 38 37 37 37 37 38 39 42 45 48 50 54 58 62 66 71 78 86 91 95 97 97 96 93 89 85 82 81 78 73 69 65 64 64 63 62 63
80 80 80 81 82 83 84 85 86 87 88 89 90 92 92 90 86 81 77 72 69 66 64 64 65 63 61 62 63 63 63 63 63 66 69 71 71 70 69 66 63 60 55 49 45 41 38 37 37 36 35 35 35 36 38 40 43 46 48 52 55 58 63 69 75 82 89 93 95 97 98 95 91 87 83 81 79 75 71 67 65 65 64 64 64
79 80 80 82 83 84 85 87 88 89 89 89 91 92 92 90 85 79 75 71 67 64 64 65 66 63 61 63 65 65 65 65 66 68 70 71 71 71 70 67 64 60 55 49 44 40 37 36 36 35 34 33 33 34 36 38 41 44 46 49 52 55 60 66 72 79 87 92 94 97 98 97 94 91 85 81 80 78 74 70 67 66 65 65 65
80 80 81 83 84 85 87 89 90 91 91 91 92 92 91 89 84 77 73 71 67 65 65 66 66 63 63 66 68 67 67 67 68 70 71 71 71 71 70 68 65 60 56 51 45 40 37 35 35 34 33 32 31 32 33 35 38 40 43 46 49 53 57 63 69 75 83 89 94 97 98 98 96 93 87 82 82 81 78 74 71 69 68 66 66
80 80 82 83 85 86 88 90 92 93 93 92 92 92 91 88 81 75 72 70 67 65 67 67 66 65 65 68 70 69 70 71 71 71 71 72 72 71 71 69 64 59 55 51 46 41 36 34 34 34 32 31 30 30 31 33 35 37 40 43 47 51 55 60 66 72 79 87 92 96 98 98 96 94 88 82 81 81 80 77 74 72 71 69 67
80 82 84 85 87 88 89 92 94 94 94 94 94 92 90 85 79 74 72 69 67 66 68 69 68 67 68 71 71 70 72 74 73 73 74 74 73 72 72 69 63 58 55 51 46 40 35 33 34 32 30 29 28 28 28 30 31 34 37 40 44 48 52 57 63 69 76 85 91 96 98 98 96 93 87 80 77 78 78 77 76 75 73 70 68
82 84 86 88 90 91 91 93 94 95 96 95 94 92 88 82 76 73 70 68 67 67 69 71 70 70 72 74 73 73 75 76 76 76 77 76 74 73 72 69 62 57 54 50 45 39 34 32 32 30 28 26 26 26 26 26 28 31 33 36 40 44 49 54 60 66 74 82 89 94 97 96 95 92 86 77 74 74 75 76 77 76 73 72 69
84 86 87 89 92 93 93 94 95 96 96 96 94 90 82 74 71 71 69 67 67 69 72 73 72 72 74 75 73 75 78 79 78 78 78 78 77 75 73 69 61 56 54 50 44 38 32 30 31 28 25 25 25 25 24 23 25 28 29 32 36 40 45 50 55 63 70 78 86 92 94 93 92 91 85 76 71 72 74 77 78 76 74 72 69
86 85 86 91 94 95 95 96 96 97 98 97 90 79 70 67 68 70 69 69 69 71 74 74 72 72 73 73 74 79 82 83 82 81 79 79 79 76 72 66 60 57 54 50 44 38 32 30 30 27 25 25 25 23 22 22 23 24 25 28 31 35 40 45 50 58 66 74 81 87 91 91 90 88 83 75 70 70 74 76 77 76 74 72 69
86 85 89 93 94 95 97 97 97 98 96 87 76 68 66 67 69 71 73 73 72 71 71 71 72 73 73 74 79 85 87 87 86 83 81 80 78 75 70 64 61 59 55 49 43 36 30 29 29 26 25 26 24 23 22 20 20 20 21 23 26 30 35 40 46 53 61 69 77 83 87 87 86 84 80 73 69 70 73 76 77 76 75 73 71
88 90 93 95 95 97 98 97 96 94 84 72 69 72 73 72 73 75 76 74 70 68 68 71 75 75 73 76 82 87 89 88 85 84 82 80 76 73 67 63 61 58 53 47 41 34 28 29 29 27 26 27 25 23 21 18 16 15 16 17 20 25 30 36 41 48 55 64 72 78 82 83 82 80 77 72 69 71 73 75 76 75 74 73 73
92 95 97 97 97 99 97 95 93 86 75 72 78 79 75 74 76 76 74 71 68 66 68 75 79 76 74 79 84 87 88 87 84 82 81 78 74 70 65 61 59 56 50 45 39 32 27 28 29 27 28 28 26 23 20 16 13 12 13 15 17 19 24 30 37 43 50 59 67 74 78 80 78 76 74 71 70 72 73 75 75 74 72 71 72
96 99 100 99 99 99 95 91 88 80 73 74 77 74 71 73 73 71 68 65 63 66 75 82 81 76 77 83 86 86 87 87 85 82 78 74 71 66 62 60 56 52 47 41 35 29 26 28 29 28 29 30 27 24 21 17 12 10 12 15 17 18 20 24 31 38 46 54 63 70 75 77 76 74 73 71 71 72 74 74 73 71 69 69 69
99 101 101 101 101 99 95 90 81 71 63 61 62 67 74 74 68 65 65 63 67 77 85 85 81 80 83 86 87 86 87 87 85 80 75 71 67 63 60 58 53 47 43 38 32 27 25 28 29 30 32 31 28 26 24 18 13 12 13 15 16 17 19 22 27 34 41 50 58 66 72 74 75 74 72 71 72 72 73 73 70 67 65 65 66
101 102 103 103 102 100 97 88 71 57 52 52 55 64 70 68 63 65 69 74 81 87 87 84 84 85 85 87 88 86 83 81 79 75 71 67 63 60 58 55 49 44 40 35 30 25 25 29 31 31 33 33 30 28 25 20 16 16 16 16 16 16 17 20 24 31 38 45 54 62 69 72 74 73 72 70 70 71 71 69 67 65 63 61 62
103 104 104 104 102 100 96 85 70 61 63 65 63 63 66 68 71 77 82 86 86 84 83 85 87 85 85 86 85 81 77 74 72 69 65 62 60 58 55 50 45 42 38 33 29 25 26 30 33 33 34 34 33 30 27 23 20 18 18 19 18 16 15 17 21 27 34 41 50 58 66 70 73 73 71 70 70 70 70 68 65 63 61 59 59
105 105 104 104 103 99 93 85 77 74 74 73 70 71 75 78 80 83 87 88 86 83 83 84 84 84 83 81 78 77 76 73 69 64 62 62 60 57 52 46 42 40 37 32 28 26 27 32 35 35 36 37 36 32 29 26 23 21 20 20 21 19 16 16 19 24 30 38 45 54 63 68 72 73 73 72 71 70 69 67 62 60 61 60 58
106 106 106 105 103 99 94 88 83 81 79 77 77 78 79 81 82 83 84 86 86 85 83 81 81 81 78 74 76 79 77 73 68 63 62 62 60 55 50 44 39 37 35 32 28 27 29 34 38 38 39 40 39 36 32 28 26 24 23 22 22 21 18 16 18 21 27 34 42 50 59 66 71 73 73 73 71 69 68 66 62 60 61 62 60
107 107 107 105 102 98 94 88 85 84 84 83 82 81 81 83 85 85 85 86 86 85 83 81 81 80 76 76 79 79 75 71 68 65 63 61 57 52 49 44 37 34 33 31 28 28 31 35 40 41 42 43 42 39 35 32 29 28 26 24 23 22 20 18 18 20 24 30 38 47 55 63 68 71 72 72 71 69 67 65 63 63 62 62 61
109 108 106 104 101 96 92 89 88 87 86 86 85 85 85 85 85 85 86 87 86 86 86 86 85 82 81 79 77 74 72 71 68 65 61 57 53 51 49 44 37 32 31 30 29 29 32 37 42 44 45 46 45 42 38 35 34 32 29 27 26 25 23 22 21 21 23 28 34 43 51 59 64 68 70 70 70 69 67 64 64 64 62 60 59
109 107 104 101 98 94 92 91 90 90 90 90 90 89 88 88 87 86 86 87 87 86 87 87 85 82 79 75 71 69 70 69 66 63 58 53 51 50 49 45 38 32 29 30 29 30 33 38 44 47 48 49 49 45 41 39 38 36 34 32 30 28 27 26 24 23 24 27 32 40 47 54 60 64 67 68 69 68 67 65 66 65 63 60 59
108 105 102 99 95 93 93 93 93 93 94 94 92 90 89 89 87 84 84 87 87 86 85 83 81 78 74 71 67 66 65 65 62 59 55 51 50 48 47 45 40 32 28 29 29 30 33 39 46 50 50 52 52 49 45 44 43 40 38 36 34 32 30 29 28 26 26 27 31 38 45 51 57 61 64 66 67 67 67 67 68 67 64 60 58
104 101 98 95 94 95 95 95 96 97 96 95 92 89 87 87 85 83 84 85 84 82 80 78 76 73 70 66 64 63 62 60 57 56 54 51 48 45 44 44 40 33 28 27 29 30 33 40 48 52 53 54 55 53 50 48 47 45 42 39 38 36 34 33 32 30 29 29 32 36 43 50 54 59 62 64 65 66 67 68 69 68 66 62 59
100 97 96 96 97 97 98 98 98 98 96 95 92 88 87 86 84 82 80 80 79 77 75 74 72 70 67 64 63 61 58 56 55 55 53 50 46 44 42 41 40 36 31 27 28 30 33 40 49 55 55 56 57 57 54 52 51 49 46 43 41 40 37 36 35 33 32 32 33 36 41 47 53 57 60 62 63 63 64 67 69 70 69 68 64
98 97 97 99 100 100 100 99 99 98 96 94 91 88 86 84 80 75 73 74 75 75 73 71 69 67 65 64 62 59 56 55 54 53 50 47 45 43 41 39 39 38 34 29 29 31 34 39 48 56 58 58 59 59 58 56 55 53 50 47 45 43 41 39 37 36 35 35 36 38 40 43 49 55 58 60 60 59 58 61 67 70 70 71 69
98 98 99 101 101 101 101 100 98 97 95 93 90 87 82 79 75 70 67 69 72 73 71 70 68 67 65 64 62 59 56 54 52 50 48 46 43 41 40 38 37 38 37 33 31 32 34 38 46 56 61 61 60 61 61 60 59 57 54 51 49 47 45 42 41 39 38 38 41 44 44 43 47 53 56 57 58 58 57 58 62 66 69 72 72
99 100 101 102 102 102 100 98 97 96 94 91 88 83 78 74 71 67 64 66 68 70 69 69 69 67 65 64 62 58 55 53 51 48 47 44 40 38 38 36 35 36 37 35 33 33 36 38 44 53 62 65 63 62 63 63 63 61 59 56 53 51 49 46 45 43 42 42 45 50 51 48 48 53 57 56 56 58 61 61 61 63 65 68 70
100 101 101 102 102 100 98 97 96 94 91 87 83 79 74 70 67 64 62 62 64 66 67 67 67 65 64 63 60 57 54 52 49 47 45 43 39 36 34 34 35 35 35 36 35 34 36 39 42 50 60 67 68 65 64 65 66 65 64 60 57 55 54 51 49 47 45 46 51 55 55 53 52 55 59 60 58 58 61 62 62 61 61 62 64
101 101 101 101 99 98 97 95 93 90 86 81 77 74 71 67 64 61 59 58 58 59 60 61 61 60 58 57 56 53 52 50 47 44 43 42 41 37 34 33 35 35 35 36 36 35 37 39 42 47 56 65 71 70 67 66 66 68 68 66 61 59 58 57 54 51 48 50 55 59 59 56 56 59 63 64 62 61 61 62 62 62 62 61 61
101 100 99 98 97 96 94 92 88 84 80 76 73 70 66 63 60 57 55 53 52 52 53 54 55 53 52 51 51 50 48 47 45 42 41 41 42 40 37 34 35 36 36 36 36 36 37 39 42 46 52 61 70 74 73 70 68 69 71 71 67 63 62 62 60 56 53 53 57 62 63 60 59 62 65 67 67 66 65 64 64 64 64 63 62
99 98 98 96 95 93 89 85 82 78 75 72 69 65 62 58 55 52 50 48 47 47 48 49 50 49 48 47 46 45 44 42 42 42 41 41 41 41 40 37 36 36 37 38 38 38 38 40 42 46 49 56 65 73 77 75 73 71 71 73 73 69 67 66 65 62 59 57 59 63 66 66 64 64 66 70 71 70 69 67 67 66 65 65 65
97 97 95 93 90 86 82 79 76 73 70 67 64 61 57 53 50 48 47 45 44 43 44 45 46 46 46 44 42 41 40 40 40 41 41 40 39 40 40 39 38 38 38 39 39 40 40 40 42 46 49 53 59 69 76 79 78 76 73 74 76 75 72 70 69 68 66 63 62 64 67 70 70 68 68 70 72 72 72 71 69 68 66 66 67
94 92 89 85 82 78 75 73 71 68 65 62 59 56 53 50 48 46 45 44 42 41 41 40 41 42 43 42 40 39 39 39 39 40 40 39 38 38 39 39 40 40 40 40 40 41 41 42 43 45 49 52 55 62 71 78 82 81 78 77 77 78 77 74 74 73 72 69 67 67 69 72 74 74 72 71 72 73 73 73 72 71 69 68 69
89 85 81 77 74 72 70 68 66 64 60 57 55 52 50 49 47 46 44 44 43 41 40 39 39 39 41 41 40 40 40 39 38 39 39 38 38 38 39 39 40 41 41 42 42 42 42 43 44 46 49 52 54 58 64 73 80 84 84 82 80 80 80 79 78 78 77 75 73 72 72 74 77 77 76 75 74 74 74 74 74 74 73 73 72
81 77 74 71 69 67 66 64 62 60 57 54 52 50 49 48 47 46 45 44 43 42 41 40 39 39 40 40 40 39 39 39 38 38 38 39 39 39 39 40 40 41 42 43 43 43 44 44 45 45 47 50 53 56 60 66 74 81 86 87 85 84 83 83 82 82 82 80 78 77 77 78 79 80 79 79 78 78 78 77 77 76 77 77 77
73 71 69 67 65 63 62 60 59 57 54 52 51 50 48 47 47 46 45 43 42 41 41 40 39 39 39 39 39 38 38 38 38 38 38 38 39 39 40 40 41 42 42 43 44 44 44 44 45 45 45 46 49 54 57 61 67 74 81 87 89 88 87 86 85 85 86 85 84 82 82 82 83 82 82 82 82 82 82 82 81 80 79 79 80
68 67 66 64 61 59 58 57 56 55 52 51 50 49 48 46 45 43 42 41 40 38 38 38 38 37 36 36 36 36 35 35 36 36 36 37 37 37 38 39 40 41 41 42 42 43 43 44 44 45 45 44 45 49 53 58 62 67 73 81 87 90 90 90 89 88 89 89 89 88 87 87 87 86 85 84 85 85 85 85 85 85 84 82 82
64 63 62 60 58 56 55 55 54 53 50 48 47 47 45 44 42 40 38 37 36 35 35 35 35 34 34 33 33 32 32 32 32 32 33 33 34 34 35 36 37 38 39 40 40 41 42 43 43 44 45 45 44 45 48 53 57 62 67 73 81 87 91 93 93 92 92 92 93 93 92 91 91 91 89 88 87 88 88 88 88 88 88 87 86
60 58 56 55 54 54 53 52 51 49 47 45 44 43 42 41 39 37 35 34 33 33 32 32 31 31 31 30 30 29 29 29 29 29 30 30 31 32 32 33 34 34 35 37 38 38 40 41 41 42 43 44 44 44 45 48 52 58 63 68 74 81 87 92 95 96 96 96 96 97 97 97 96 95 95 93 91 90 91 92 92 92 91 90 91
Wind_Direction
326 326 327 326 327 329 331 330 330 330 330 331 331 331 331 330 329 328 327 325 323 321 319 317 314 312 310 308 305 303 301 299 297 296 295 294 292 292 292 293 293 293 294 295 295 292 289 286 282 275 268 263 259 255 252 249 245 243 239 235 232 228 224 221 220 219 220 222 222 223 224 222 221 222 222 221 221 221 221 222 224 227 228 228 228
323 324 325 324 325 328 329 329 329 329 330 330 330 330 330 330 329 328 326 325 323 321 319 317 315 313 311 309 306 305 303 301 300 298 297 295 294 293 293 293 293 294 295 296 295 293 290 287 283 277 271 264 259 254 250 249 246 242 240 236 233 230 226 222 220 219 220 222 222 222 223 222 220 221 222 221 221 221 221 221 224 228 229 229 229
321 322 322 322 324 328 328 328 329 329 329 329 329 329 329 329 328 327 326 325 323 322 320 318 316 313 311 309 307 305 304 303 302 299 298 297 296 295 295 295 295 296 296 296 295 294 292 288 283 278 272 265 260 255 250 248 246 243 240 237 233 230 227 223 220 219 220 221 221 222 223 222 220 220 221 221 221 221 221 221 222 224 226 229 229
320 319 319 320 324 327 327 326 327 327 328 328 328 328 328 328 328 327 325 324 322 321 319 317 315 313 311 309 307 306 305 304 302 300 299 299 298 298 298 299 298 296 296 296 297 296 294 290 285 279 273 267 261 256 250 247 245 243 240 238 233 230 227 224 221 220 220 221 221 221 222 223 221 220 221 221 221 221 221 220 221 222 225 228 228
318 317 316 318 323 326 325 325 326 327 327 327 327 327 327 327 327 326 325 324 322 321 320 317 315 312 310 308 307 306 305 304 302 301 301 300 300 301 302 303 303 301 301 302 301 299 295 291 286 280 274 268 262 257 251 247 244 243 241 238 234 230 227 225 222 220 220 221 222 222 222 223 222 220 221 221 220 221 221 220 221 222 226 228 228
318 316 313 315 321 323 323 323 325 326 326 326 326 326 327 327 326 326 325 324 322 321 319 317 314 311 310 308 306 306 306 305 304 303 303 303 302 303 304 305 307 307 307 306 304 301 297 293 287 281 275 268 262 257 252 247 244 242 241 238 235 230 227 225 223 221 220 220 222 222 222 223 222 221 221 221 220 220 220 221 222 223 226 229 231
317 314 311 313 317 320 320 321 323 324 325 325 325 326 326 326 326 325 324 323 322 320 318 316 313 311 310 308 308 308 307 306 305 305 305 305 305 305 306 307 307 307 306 305 303 301 297 292 287 281 275 268 262 256 252 248 244 242 240 238 236 231 226 224 222 221 220 221 222 223 223 222 222 221 221 220 220 219 220 221 222 223 224 226 229
312 310 311 312 314 316 318 320 323 324 324 324 325 326 326 326 326 325 324 323 321 320 317 315 313 312 310 309 309 309 309 308 307 306 306 306 306 307 307 308 308 307 305 303 301 299 295 291 285 280 274 267 261 255 251 248 245 241 239 237 235 231 226 222 220 220 220 221 222 223 223 222 221 221 222 221 220 220 220 221 222 224 224 225 228
307 306 309 311 313 315 318 321 323 323 324 324 325 325 326 326 325 324 323 322 320 318 316 314 313 311 310 309 309 310 310 309 308 308 308 307 308 310 311 311 311 309 306 303 301 298 294 289 284 278 272 266 260 255 250 247 244 241 238 236 235 231 226 221 219 218 219 221 222 223 224 223 221 220 222 222 222 222 221 221 222 224 225 226 229
306 306 309 311 313 316 319 321 323 323 323 324 324 325 325 325 325 324 323 321 319 316 315 313 312 311 310 309 310 311 310 310 310 310 310 310 311 313 314 315 314 312 309 306 302 298 293 288 283 276 269 263 258 253 249 246 244 241 238 236 233 231 226 222 219 217 217 219 221 222 224 224 221 220 221 222 223 223 222 221 222 224 224 225 228
306 307 309 312 314 316 318 321 322 322 323 324 324 324 325 324 324 323 322 320 317 315 314 313 312 311 310 310 310 311 311 311 312 313 313 313 314 316 317 318 318 315 312 309 305 300 294 288 282 275 268 262 257 252 248 245 243 241 238 235 232 230 227 222 218 217 216 217 219 221 223 224 222 220 220 222 223 223 222 221 222 224 224 224 226
305 307 309 312 314 315 318 320 321 321 322 323 323 324 324 323 323 322 321 319 316 314 313 312 312 311 310 310 311 311 312 313 313 314 315 316 317 318 320 321 321 318 315 312 307 302 295 288 281 274 268 262 257 251 247 245 243 241 238 235 232 229 226 222 219 216 216 216 217 219 222 224 223 221 220 220 221 222 222 222 223 224 224 224 226
306 308 310 312 313 315 317 318 320 320 322 322 323 323 322 323 323 322 320 318 315 313 311 310 311 311 310 311 311 311 313 314 314 315 316 318 319 320 321 323 323 321 318 314 309 304 297 288 281 274 268 263 258 252 247 245 244 242 239 236 233 229 226 223 219 216 215 215 215 218 221 223 224 223 220 219 220 221 222 224 225 225 224 225 226
306 308 310 311 312 314 316 317 318 320 321 321 322 322 322 322 322 321 319 317 314 312 309 309 310 310 310 311 312 312 314 314 314 315 317 318 320 321 322 324 324 322 319 316 312 306 298 290 282 275 268 263 259 254 249 246 244 242 240 236 234 230 226 223 219 216 215 215 215 216 219 222 224 224 222 219 219 220 222 224 226 226 225 225 226
305 308 309 310 312 314 315 316 317 319 320 321 321 321 321 321 321 319 318 316 314 312 310 309 310 310 310 312 313 313 314 314 314 316 318 319 320 322 324 325 325 323 320 318 314 308 300 291 283 277 270 264 260 256 251 248 245 243 240 236 234 231 227 223 220 216 214 214 214 215 218 221 223 224 223 220 219 220 222 223 226 228 227 226 227
305 307 309 310 312 313 314 315 317 318 320 320 321 321 321 320 320 318 317 316 314 312 310 309 309 310 311 312 313 313 313 313 314 317 319 320 321 323 325 326 325 323 321 319 316 310 302 291 283 278 271 264 260 255 251 247 244 242 240 237 234 231 228 223 221 217 214 213 213 214 217 220 222 224 224 221 220 221 222 222 224 227 228 227 227
305 307 309 309 311 312 314 315 317 318 319 320 320 320 319 319 318 317 316 314 312 311 310 309 309 309 310 311 311 312 312 313 315 318 319 320 321 324 326 326 324 323 321 319 316 310 302 291 282 277 271 264 259 254 248 244 241 239 238 237 234 231 228 224 221 218 214 213 213 214 216 219 221 223 224 222 220 221 221 222 223 225 226 226 227
305 308 309 309 310 312 314 315 316 318 319 319 319 319 318 317 316 315 314 312 310 310 310 309 309 308 309 310 310 311 312 315 317 318 320 321 322 324 326 325 324 322 321 319 315 310 302 289 280 275 269 263 257 251 244 239 239 238 238 237 234 231 229 225 221 219 215 213 213 213 216 219 221 223 224 222 220 220 220 221 222 223 224 225 226
306 308 308 309 310 312 314 315 316 317 318 318 318 318 317 315 314 312 311 309 308 309 308 307 307 307 308 309 310 311 313 315 317 318 320 321 323 325 325 324 323 321 320 318 314 310 300 286 277 271 266 258 251 245 239 237 239 240 238 237 236 233 230 226 222 220 217 214 212 213 216 218 220 222 224 221 218 218 219 220 221 222 223 223 224
305 306 307 309 311 312 314 315 316 316 317 317 316 315 314 313 313 312 310 307 306 306 305 305 304 305 306 308 309 311 313 316 317 318 320 321 322 323 322 321 322 322 320 317 313 308 299 283 272 267 260 250 244 240 237 237 241 242 240 240 238 235 232 228 224 221 218 215 213 213 215 217 219 222 223 220 216 216 218 219 219 220 221 222 224
304 305 306 309 311 312 314 315 316 316 316 316 315 314 312 311 312 311 309 307 306 305 304 303 303 305 307 308 310 313 315 317 317 318 319 319 319 320 320 320 321 321 319 316 311 306 296 279 266 260 251 242 237 234 235 239 245 246 244 243 241 237 234 231 226 222 219 217 214 212 214 216 218 220 222 219 215 214 216 217 217 219 220 221 223
303 304 306 309 310 311 313 314 315 316 316 314 314 313 311 310 310 309 308 307 306 305 304 303 305 308 309 309 312 314 315 316 316 316 317 318 318 319 319 319 319 319 317 313 308 303 292 274 261 252 241 234 229 228 234 240 244 245 244 244 243 240 235 232 227 222 219 217 215 212 213 215 217 218 220 218 214 213 215 216 217 219 220 221 222
302 304 307 308 309 311 312 314 315 317 316 312 311 310 309 308 308 309 309 307 305 304 304 305 307 308 307 308 311 313 313 314 314 314 314 316 317 317 317 317 317 316 314 309 304 299 286 268 255 244 233 226 223 225 231 232 230 233 236 239 243 241 237 233 228 222 219 217 215 212 212 214 215 217 218 216 213 212 214 216 217 219 220 221 223
302 304 307 308 309 311 313 314 316 317 313 309 307 307 306 307 309 310 308 306 303 303 304 306 307 306 304 306 310 311 311 311 311 311 312 313 314 315 315 316 315 313 310 305 300 294 280 261 248 237 226 221 220 220 220 213 208 218 228 231 235 239 238 233 228 222 218 216 214 212 211 212 214 215 216 215 213 212 213 215 217 218 219 221 224
302 304 306 307 309 310 312 314 314 313 311 310 308 306 306 310 311 310 307 304 301 301 303 305 305 304 303 306 309 310 309 309 309 310 311 311 312 313 314 314 313 310 305 301 296 288 272 253 242 230 219 217 217 212 205 197 196 217 238 239 234 233 234 232 227 222 217 215 214 212 211 211 212 213 214 214 213 212 213 215 216 217 218 221 223
302 304 305 306 308 309 310 312 312 311 313 314 310 305 307 309 308 307 305 302 300 301 303 304 304 304 304 306 308 307 306 306 308 310 310 309 310 312 312 313 311 306 301 297 292 283 263 246 236 223 215 214 213 203 196 195 200 220 241 247 239 231 231 230 226 220 216 214 213 212 211 210 210 212 213 213 212 212 213 214 214 215 217 219 222
302 303 304 305 306 307 309 311 310 305 302 302 302 302 302 303 302 301 300 299 299 300 302 303 303 303 304 305 306 304 303 305 307 308 308 308 309 311 311 311 309 304 298 293 289 278 255 238 229 219 213 211 206 197 192 192 198 213 230 242 242 234 231 231 227 220 216 214 213 212 210 209 210 210 211 210 210 210 211 212 213 215 216 219 223
301 302 303 304 305 306 308 308 305 297 293 295 296 294 292 292 295 297 298 299 300 300 301 302 301 301 302 303 303 302 303 305 306 307 306 307 309 310 310 309 307 302 297 290 284 271 249 233 225 217 211 206 201 195 189 187 193 205 219 233 238 235 232 231 228 221 216 213 212 211 210 209 209 209 209 208 208 209 210 211 214 216 217 220 224
299 301 301 302 304 305 306 305 302 299 298 297 296 294 292 293 296 298 299 299 297 297 298 299 299 299 301 301 301 302 304 305 305 304 305 306 308 308 308 307 305 300 294 287 279 264 245 230 221 214 207 202 199 194 187 184 191 201 209 221 232 235 232 227 225 221 217 214 212 211 210 209 208 208 209 208 208 209 211 212 215 217 218 221 224
299 300 301 302 303 304 304 303 302 301 300 299 299 299 298 298 298 299 298 296 295 296 298 298 298 300 300 301 302 303 303 303 302 302 303 305 306 306 306 305 303 298 292 284 273 258 241 227 218 212 205 201 198 193 187 185 190 196 202 211 223 232 232 224 220 220 218 216 214 211 210 209 209 209 209 209 209 210 212 213 216 218 220 222 226
300 301 302 302 303 303 303 303 302 302 301 301 301 301 300 300 300 299 297 296 297 299 300 300 299 300 300 300 302 302 300 300 301 301 301 302 303 303 303 303 302 296 290 280 267 254 240 225 216 210 205 200 197 193 190 188 189 192 197 204 213 223 227 224 221 219 218 217 215 212 210 209 209 209 209 209 209 210 212 213 216 218 219 221 225
300 301 301 302 302 303 302 302 302 301 301 302 302 301 301 301 300 299 298 298 298 299 298 298 297 297 297 298 299 298 297 298 299 299 299 299 300 300 300 300 299 294 287 277 263 250 238 224 213 208 205 201 197 194 192 191 189 190 195 200 207 215 219 219 219 219 218 216 215 213 211 209 209 209 209 209 210 210 211 212 215 216 217 219 222
299 300 300 301 301 301 301 301 301 301 302 302 302 302 302 301 300 299 298 297 297 296 295 295 294 295 295 296 296 295 294 295 295 296 296 296 296 297 297 296 295 290 283 274 260 247 236 223 212 207 205 201 198 196 195 193 191 191 194 199 203 208 213 215 215 216 217 217 214 212 211 209 209 209 209 209 210 210 210 212 214 214 216 218 220
298 299 299 300 300 300 300 301 301 301 301 301 301 302 302 300 299 298 297 296 295 294 293 293 293 294 295 296 295 294 293 293 294 294 294 294 294 293 292 292 290 286 278 269 258 245 234 222 212 206 205 202 199 198 198 196 194 193 196 199 202 204 209 213 214 213 215 217 214 211 210 209 208 208 209 209 210 210 211 212 214 214 215 218 221
297 298 298 298 299 299 300 300 300 300 300 300 300 301 300 298 298 297 296 294 293 293 292 292 293 295 295 295 294 294 294 293 293 292 293 293 292 289 288 287 286 281 273 264 254 244 234 223 213 207 206 204 201 200 201 200 197 195 196 199 201 203 206 212 215 215 214 215 214 210 208 208 207 207 208 209 209 210 212 213 214 215 216 218 221
296 297 297 298 298 299 299 299 299 299 299 299 300 299 298 298 298 297 295 294 293 293 293 293 294 295 295 294 294 294 294 293 292 291 291 290 289 287 284 283 282 279 272 261 250 242 235 224 215 209 207 205 204 203 203 202 200 198 197 198 200 202 204 210 215 216 214 213 210 206 205 206 206 206 207 207 208 210 213 215 215 216 218 220 222
296 296 297 298 298 298 298 299 299 299 299 299 299 299 299 298 297 296 294 292 292 292 292 292 292 293 293 293 293 293 293 292 291 289 288 287 286 284 281 278 276 274 270 262 249 240 234 226 217 211 208 206 206 205 205 204 203 201 199 198 199 201 203 207 212 215 214 211 206 199 198 202 204 203 204 205 206 207 211 215 217 217 219 221 222
296 297 297 297 298 298 298 299 299 299 299 299 300 300 299 298 297 295 291 288 288 288 289 289 290 290 291 291 291 292 291 290 289 287 286 285 283 281 279 274 269 267 266 262 250 239 233 228 220 213 210 208 207 207 207 207 205 203 201 199 199 201 203 205 208 211 212 210 203 195 193 198 202 201 200 202 204 205 208 213 216 218 219 220 222
296 296 297 297 297 298 298 299 299 300 300 300 300 300 299 298 296 293 289 286 284 284 285 286 287 288 289 289 290 291 290 289 287 286 284 283 280 277 275 271 266 263 261 259 251 240 233 229 222 216 212 209 208 208 209 209 208 206 204 202 200 200 202 204 206 209 210 208 201 194 191 195 200 199 196 198 203 206 208 211 214 217 219 220 222
295 296 296 297 297 298 299 299 300 300 301 301 300 300 299 297 295 293 289 285 283 282 283 284 284 285 286 286 287 288 288 286 285 284 284 283 280 276 273 270 267 262 258 255 251 242 234 229 225 219 214 212 210 209 209 210 210 208 206 205 203 201 202 203 205 208 209 207 200 194 191 195 199 198 195 197 202 207 210 212 214 215 216 219 222
295 296 296 297 297 298 299 300 300 300 300 300 300 300 299 298 296 293 290 287 285 283 282 282 282 283 283 284 284 284 283 283 283 282 282 282 281 279 274 269 265 262 258 254 250 244 237 232 228 223 218 214 212 211 210 211 211 210 209 207 206 204 203 202 203 206 209 207 201 195 194 196 199 199 197 199 203 208 211 213 214 214 215 217 221
295 296 296 297 298 299 299 300 300 300 300 300 300 300 299 298 296 294 292 290 287 285 283 282 282 282 281 281 281 280 280 280 281 281 280 280 279 278 275 269 264 261 259 255 251 247 242 235 230 226 222 217 214 213 212 211 212 212 211 210 209 207 205 203 203 204 207 207 203 199 197 197 200 201 200 201 204 208 211 213 215 216 216 218 220
295 295 296 297 298 298 299 299 299 299 299 299 299 299 299 298 297 295 294 292 290 287 285 283 283 282 280 279 278 278 279 279 279 279 278 277 275 274 273 269 265 261 258 255 253 250 245 238 233 229 226 222 218 215 214 213 213 212 212 212 211 210 208 205 204 204 206 207 207 205 202 200 200 202 204 204 206 209 211 214 216 217 218 219 220
294 295 296 297 297 297 297 297 297 298 298 298 299 299 298 298 297 296 295 293 291 288 285 283 282 282 281 280 279 279 279 279 278 278 277 276 273 271 269 268 265 262 258 255 253 251 248 243 236 231 229 226 222 219 217 215 214 214 213 213 213 212 211 208 206 205 206 207 208 208 207 204 203 204 206 207 209 210 212 214 216 218 219 220 221
294 295 296 296 296 296 296 296 296 297 297 297 298 298 297 297 297 297 296 294 292 289 286 283 282 282 282 283 283 282 281 279 278 277 275 274 271 269 267 266 264 262 260 257 255 252 250 246 241 235 231 228 226 223 220 218 217 216 215 214 214 214 213 211 208 207 207 207 208 209 209 208 206 206 208 209 211 212 213 214 216 218 220 221 222
294 294 294 294 294 295 295 295 296 296 297 297 296 297 297 298 297 296 295 293 292 291 288 287 285 284 283 284 283 282 281 279 277 275 274 272 271 269 267 266 264 263 261 259 257 254 251 248 245 240 234 230 228 227 224 222 219 218 217 216 215 215 215 214 211 208 208 209 209 209 209 210 209 209 210 211 212 213 214 215 217 218 220 221 222
293 293 293 293 294 294 295 295 296 296 296 297 297 297 297 297 296 295 294 293 291 291 290 289 287 285 284 283 282 281 280 278 276 274 272 272 271 269 268 267 266 264 262 260 258 256 253 250 248 245 239 233 229 228 227 226 224 221 219 218 217 216 215 215 214 211 210 210 210 210 210 210 211 212 213 214 214 215 216 217 217 218 220 221 222
292 292 293 293 294 294 295 295 295 295 296 297 297 297 296 295 294 293 292 291 290 289 288 287 286 284 282 281 281 280 279 278 276 275 273 271 270 269 269 268 267 265 264 262 260 258 256 254 252 250 247 240 234 230 229 228 227 225 223 221 219 218 217 216 216 214 212 211 211 211 211 211 212 213 215 216 216 216 217 218 218 219 220 221 222
291 292 292 293 294 294 294 294 294 295 296 296 296 296 295 293 292 291 290 290 288 287 286 285 284 283 282 281 281 280 279 278 277 276 275 273 272 271 269 269 268 267 266 265 264 262 260 258 256 254 252 248 241 235 231 230 230 229 227 225 223 221 220 218 217 216 215 213 212 212 212 212 212 213 215 217 218 218 218 219 220 220 221 222 223
290 291 292 294 294 294 293 293 293 295 296 296 295 294 293 292 291 290 289 288 287 286 285 284 284 284 283 283 282 281 281 280 279 278 277 276 274 273 272 270 269 269 268 267 266 265 263 261 259 257 255 253 248 242 236 232 231 230 230 229 227 225 223 221 219 218 217 216 215 214 213 213 213 214 215 216 218 219 220 221 221 222 223 223 224
290 291 293 294 294 293 292 293 293 294 295 294 293 292 291 290 289 288 287 286 285 285 285 285 284 284 284 283 283 282 281 281 279 279 278 277 275 275 274 272 270 270 269 268 266 265 264 262 261 259 258 255 253 249 243 238 233 231 230 230 230 228 226 225 222 220 219 218 217 216 215 215 215 215 215 216 217 219 220 221 222 223 224 225 225
Height
10892 10890 10887 10884 10882 10879 10876 10873 10869 10866 10862 10857 10852 10848 10844 10840 10835 10831 10827 10824 10819 10815 10811 10807 10803 10799 10796 10792 10789 10787 10785 10783 10781 10779 10776 10774 10771 10770 10768 10766 10764 10763 10761 10760 10759 10757 10755 10751 10749 10748 10748 10746 10745 10745 10745 10746 10748 10750 10754 10759 10763 10768 10774 10781 10788 10790 10791 10797 10804 10808 10812 10817 10823 10827 10830 10835 10840 10845 10850 10853 10855 10857 10859 10861 10864
10887 10885 10883 10880 10877 10874 10871 10867 10864 10860 10855 10851 10846 10842 10838 10834 10830 10825 10820 10816 10812 10809 10804 10800 10796 10792 10788 10785 10781 10779 10777 10775 10773 10771 10768 10765 10763 10761 10760 10758 10756 10754 10752 10750 10748 10746 10744 10741 10738 10736 10735 10734 10733 10734 10734 10735 10738 10740 10743 10748 10753 10758 10763 10769 10776 10780 10782 10787 10794 10798 10802 10809 10816 10819 10823 10827 10832 10838 10844 10848 10850 10852 10853 10855 10859
10882 10879 10878 10875 10871 10869 10865 10861 10857 10854 10849 10845 10840 10836 10833 10829 10825 10820 10814 10809 10804 10800 10797 10792 10788 10785 10781 10777 10774 10771 10769 10767 10764 10762 10759 10757 10754 10752 10751 10749 10747 10745 10743 10740 10736 10733 10731 10730 10728 10725 10723 10722 10722 10722 10724 10725 10728 10730 10732 10737 10743 10747 10752 10758 10764 10770 10773 10777 10784 10789 10793 10800 10807 10811 10815 10820 10825 10832 10837 10842 10845 10846 10847 10849 10853
10878 10873 10870 10868 10864 10862 10860 10856 10853 10849 10845 10840 10835 10831 10827 10822 10818 10815 10810 10805 10800 10795 10791 10786 10782 10778 10774 10770 10767 10764 10762 10759 10756 10753 10751 10748 10745 10742 10741 10739 10735 10733 10732 10729 10725 10721 10718 10716 10715 10713 10711 10710 10710 10711 10714 10715 10717 10719 10721 10726 10731 10736 10741 10748 10754 10760 10764 10768 10774 10780 10784 10791 10798 10803 10807 10813 10819 10825 10831 10835 10838 10840 10842 10845 10848
10875 10869 10864 10862 10858 10856 10855 10852 10849 10844 10839 10834 10830 10825 10821 10816 10811 10807 10803 10799 10794 10789 10784 10779 10775 10771 10767 10764 10761 10758 10755 10752 10748 10746 10743 10741 10737 10734 10732 10729 10723 10718 10717 10715 10712 10709 10706 10704 10702 10700 10700 10699 10699 10700 10703 10705 10707 10708 10710 10714 10720 10725 10730 10737 10743 10749 10756 10760 10764 10770 10776 10783 10790 10796 10800 10806 10812 10818 10823 10828 10831 10835 10838 10841 10844
10869 10866 10861 10858 10855 10851 10849 10846 10843 10839 10834 10828 10824 10819 10814 10810 10804 10800 10795 10791 10786 10781 10777 10772 10768 10764 10761 10757 10754 10751 10749 10745 10741 10739 10736 10732 10729 10725 10723 10720 10714 10707 10703 10701 10699 10696 10694 10691 10689 10689 10688 10688 10689 10690 10692 10694 10696 10697 10699 10703 10708 10713 10719 10726 10733 10738 10746 10751 10755 10761 10769 10775 10783 10789 10794 10799 10804 10810 10816 10821 10825 10830 10834 10837 10840
10861 10859 10856 10854 10852 10849 10846 10843 10839 10834 10829 10823 10818 10813 10807 10802 10797 10792 10788 10783 10779 10774 10770 10765 10761 10757 10753 10750 10747 10744 10741 10738 10734 10732 10729 10725 10721 10717 10714 10711 10706 10700 10695 10691 10688 10685 10682 10680 10678 10677 10677 10677 10678 10679 10680 10683 10685 10687 10689 10692 10696 10702 10708 10715 10722 10728 10735 10741 10746 10753 10761 10767 10775 10782 10786 10791 10797 10804 10810 10815 10818 10822 10826 10829 10832
10854 10851 10849 10847 10846 10844 10842 10838 10833 10828 10822 10816 10811 10806 10801 10796 10790 10785 10779 10775 10770 10766 10761 10757 10753 10749 10746 10743 10740 10737 10734 10730 10727 10725 10722 10718 10715 10711 10707 10704 10698 10692 10687 10682 10678 10675 10671 10668 10667 10666 10666 10666 10667 10669 10670 10671 10673 10676 10679 10681 10685 10690 10696 10703 10711 10718 10725 10731 10738 10745 10751 10759 10768 10775 10779 10785 10793 10798 10802 10805 10809 10814 10818 10822 10826
10850 10846 10843 10841 10839 10836 10833 10829 10825 10820 10814 10808 10803 10798 10793 10788 10782 10777 10772 10767 10762 10757 10753 10748 10745 10741 10738 10735 10732 10729 10726 10722 10719 10717 10714 10710 10707 10704 10700 10696 10690 10684 10678 10673 10669 10666 10661 10658 10656 10656 10656 10656 10657 10658 10659 10660 10662 10665 10668 10671 10674 10679 10685 10691 10699 10708 10715 10722 10729 10736 10744 10753 10762 10767 10772 10780 10787 10789 10791 10797 10803 10808 10813 10819 10823
10844 10841 10838 10834 10830 10826 10823 10820 10816 10811 10806 10800 10795 10790 10785 10780 10774 10769 10764 10759 10754 10749 10744 10740 10737 10734 10731 10727 10725 10722 10718 10714 10710 10708 10705 10701 10698 10695 10690 10686 10680 10673 10668 10663 10660 10656 10652 10648 10647 10646 10646 10646 10647 10648 10648 10650 10652 10654 10658 10661 10664 10668 10674 10680 10688 10697 10705 10713 10721 10728 10736 10744 10753 10760 10766 10773 10778 10780 10784 10793 10798 10802 10807 10814 10817
10837 10835 10831 10826 10822 10818 10815 10812 10809 10804 10798 10793 10787 10782 10777 10772 10767 10762 10756 10751 10746 10741 10736 10732 10729 10726 10723 10720 10717 10714 10711 10707 10703 10699 10696 10692 10689 10685 10681 10676 10670 10664 10658 10653 10649 10647 10643 10640 10638 10637 10637 10637 10637 10638 10639 10640 10642 10644 10647 10650 10653 10657 10662 10669 10677 10686 10695 10704 10712 10719 10727 10734 10743 10752 10759 10765 10770 10775 10781 10788 10792 10795 10802 10808 10810
10832 10829 10825 10820 10815 10811 10809 10806 10802 10797 10792 10786 10780 10774 10769 10764 10759 10754 10749 10743 10738 10733 10729 10725 10722 10719 10716 10713 10710 10707 10704 10700 10696 10692 10689 10685 10680 10676 10672 10667 10661 10655 10649 10644 10640 10637 10635 10632 10630 10629 10629 10629 10630 10630 10631 10632 10633 10635 10637 10639 10642 10647 10652 10658 10667 10675 10685 10694 10703 10711 10718 10725 10733 10743 10751 10757 10764 10770 10776 10782 10787 10790 10796 10801 10805
10825 10822 10818 10813 10808 10805 10802 10799 10796 10791 10786 10779 10773 10767 10761 10757 10753 10747 10741 10736 10730 10726 10722 10718 10715 10712 10709 10706 10703 10700 10697 10694 10690 10686 10682 10678 10673 10667 10663 10659 10653 10647 10642 10637 10633 10630 10627 10625 10623 10622 10621 10622 10622 10623 10623 10624 10625 10626 10628 10630 10633 10637 10643 10649 10657 10666 10676 10685 10695 10703 10709 10716 10724 10734 10743 10750 10757 10764 10771 10777 10781 10785 10790 10795 10799
10817 10814 10811 10806 10801 10798 10795 10792 10789 10785 10780 10773 10766 10760 10754 10749 10745 10740 10734 10728 10724 10720 10716 10712 10708 10705 10702 10699 10695 10692 10690 10686 10683 10680 10675 10670 10665 10660 10655 10651 10645 10640 10635 10630 10626 10623 10620 10618 10616 10615 10615 10615 10616 10616 10617 10617 10617 10619 10620 10623 10626 10630 10635 10641 10648 10657 10667 10677 10688 10696 10702 10709 10717 10725 10733 10743 10751 10758 10764 10769 10774 10779 10784 10789 10792
10810 10807 10804 10799 10795 10792 10788 10784 10780 10777 10773 10767 10760 10753 10746 10741 10737 10732 10726 10721 10717 10713 10709 10705 10702 10699 10696 10692 10688 10685 10682 10679 10676 10672 10667 10662 10658 10653 10648 10643 10638 10633 10628 10624 10620 10617 10615 10612 10610 10609 10610 10610 10610 10610 10611 10611 10612 10613 10614 10617 10620 10623 10628 10634 10640 10649 10659 10669 10680 10688 10694 10702 10708 10715 10724 10735 10744 10749 10755 10762 10768 10773 10778 10782 10786
10804 10801 10796 10791 10788 10785 10781 10776 10772 10768 10764 10759 10753 10746 10740 10734 10730 10724 10718 10714 10710 10707 10703 10699 10695 10693 10689 10685 10681 10678 10674 10671 10668 10665 10660 10656 10651 10646 10641 10635 10631 10626 10621 10617 10614 10611 10609 10606 10604 10604 10604 10604 10605 10605 10606 10607 10607 10608 10610 10612 10615 10618 10622 10627 10633 10641 10651 10662 10672 10679 10686 10693 10699 10705 10714 10725 10734 10740 10746 10754 10760 10765 10770 10775 10779
10795 10793 10789 10784 10781 10778 10773 10768 10763 10759 10755 10750 10745 10739 10733 10727 10722 10717 10711 10707 10703 10699 10695 10691 10688 10685 10682 10678 10674 10671 10666 10662 10660 10657 10653 10648 10644 10639 10634 10629 10624 10620 10615 10611 10608 10605 10603 10601 10599 10599 10599 10600 10600 10601 10602 10602 10603 10604 10605 10607 10610 10613 10616 10621 10627 10635 10644 10655 10664 10671 10677 10683 10691 10697 10705 10716 10725 10731 10738 10746 10752 10757 10762 10767 10772
10786 10783 10780 10776 10773 10770 10766 10761 10755 10750 10746 10741 10736 10731 10725 10719 10713 10709 10705 10699 10695 10691 10687 10683 10680 10677 10673 10670 10666 10663 10659 10654 10651 10649 10645 10641 10636 10632 10627 10622 10619 10614 10610 10606 10602 10600 10598 10596 10594 10594 10595 10595 10596 10597 10597 10598 10599 10600 10601 10603 10605 10608 10612 10617 10622 10629 10637 10646 10654 10662 10668 10675 10683 10690 10698 10708 10718 10725 10733 10740 10744 10749 10755 10761 10765
10775 10773 10770 10766 10763 10762 10759 10754 10748 10742 10737 10733 10728 10722 10717 10710 10704 10701 10697 10692 10687 10683 10679 10675 10672 10669 10665 10662 10658 10655 10650 10646 10643 10641 10637 10633 10629 10624 10620 10616 10612 10608 10604 10600 10597 10594 10593 10591 10589 10589 10590 10591 10592 10593 10593 10594 10594 10595 10597 10599 10601 10604 10608 10612 10617 10623 10629 10636 10645 10653 10659 10668 10677 10684 10691 10701 10711 10720 10729 10734 10737 10744 10751 10755 10759
10768 10764 10761 10757 10753 10751 10750 10746 10741 10735 10729 10724 10720 10715 10709 10702 10697 10693 10689 10684 10680 10676 10671 10668 10666 10662 10658 10654 10651 10647 10642 10637 10635 10632 10629 10625 10621 10617 10614 10609 10606 10602 10598 10594 10591 10589 10588 10586 10585 10585 10586 10587 10588 10589 10589 10590 10590 10592 10594 10596 10598 10600 10603 10607 10612 10617 10623 10629 10637 10645 10652 10661 10671 10678 10686 10695 10706 10715 10721 10726 10731 10739 10745 10748 10753
10762 10759 10755 10751 10746 10743 10741 10738 10733 10727 10721 10715 10710 10706 10701 10697 10692 10687 10681 10677 10673 10668 10663 10660 10658 10655 10650 10646 10642 10637 10633 10629 10625 10622 10621 10618 10614 10610 10607 10603 10598 10595 10591 10589 10586 10583 10582 10581 10580 10581 10583 10584 10584 10585 10586 10587 10587 10589 10591 10592 10594 10596 10599 10602 10607 10611 10617 10623 10630 10639 10647 10656 10665 10673 10682 10691 10701 10709 10715 10720 10725 10732 10738 10743 10749
10753 10751 10749 10745 10741 10736 10734 10732 10727 10720 10712 10706 10701 10698 10695 10691 10686 10680 10675 10670 10665 10660 10655 10652 10650 10647 10642 10637 10632 10627 10623 10620 10617 10613 10612 10610 10606 10603 10600 10596 10592 10588 10585 10583 10581 10578 10577 10576 10576 10577 10579 10580 10581 10583 10584 10584 10585 10586 10588 10589 10591 10593 10595 10598 10601 10606 10611 10618 10625 10634 10643 10652 10661 10670 10678 10687 10696 10704 10710 10714 10719 10726 10732 10737 10742
10741 10741 10740 10738 10735 10730 10727 10725 10721 10714 10706 10699 10694 10690 10687 10683 10678 10673 10667 10661 10656 10652 10648 10644 10641 10640 10636 10630 10626 10621 10616 10613 10610 10606 10604 10601 10598 10595 10593 10590 10586 10582 10579 10577 10575 10573 10572 10572 10572 10574 10575 10576 10579 10581 10581 10581 10583 10584 10586 10587 10588 10590 10591 10594 10597 10602 10607 10614 10621 10630 10639 10648 10658 10667 10675 10683 10691 10697 10703 10707 10713 10720 10727 10731 10737
10731 10730 10729 10728 10726 10723 10719 10716 10713 10708 10702 10695 10687 10682 10678 10674 10669 10665 10660 10654 10648 10645 10641 10637 10634 10633 10629 10624 10620 10615 10610 10607 10605 10602 10598 10595 10592 10589 10586 10583 10579 10575 10572 10570 10569 10568 10567 10567 10568 10570 10572 10574 10577 10579 10579 10579 10581 10583 10585 10585 10586 10587 10589 10591 10594 10599 10604 10610 10617 10626 10635 10644 10654 10663 10671 10678 10684 10689 10694 10700 10706 10714 10721 10726 10731
10722 10721 10719 10718 10716 10714 10713 10710 10706 10702 10699 10692 10682 10674 10670 10667 10662 10656 10653 10649 10643 10639 10636 10631 10627 10624 10620 10616 10613 10608 10602 10599 10597 10595 10592 10588 10585 10582 10579 10576 10572 10569 10565 10564 10563 10563 10563 10563 10564 10567 10569 10571 10575 10576 10577 10577 10580 10582 10584 10584 10585 10586 10587 10589 10592 10596 10601 10606 10613 10621 10630 10640 10649 10657 10664 10670 10676 10681 10687 10693 10701 10709 10715 10721 10726
10714 10711 10710 10709 10706 10704 10705 10706 10702 10697 10694 10689 10681 10671 10663 10660 10655 10649 10644 10641 10636 10631 10626 10623 10618 10614 10611 10608 10605 10601 10596 10591 10587 10586 10584 10580 10577 10575 10572 10568 10565 10562 10559 10558 10558 10558 10558 10559 10561 10564 10566 10569 10572 10574 10574 10576 10578 10581 10583 10584 10584 10585 10586 10588 10590 10594 10599 10604 10610 10618 10626 10635 10643 10650 10657 10663 10669 10676 10683 10690 10697 10705 10711 10716 10721
10705 10702 10699 10698 10697 10694 10695 10698 10701 10698 10692 10688 10685 10675 10661 10653 10649 10642 10637 10633 10627 10620 10615 10612 10609 10606 10603 10600 10596 10593 10590 10585 10580 10577 10575 10572 10570 10568 10565 10561 10558 10556 10553 10552 10552 10553 10554 10555 10558 10560 10563 10566 10569 10571 10572 10574 10576 10579 10582 10583 10583 10584 10586 10587 10589 10592 10597 10602 10607 10614 10622 10630 10638 10645 10651 10658 10666 10673 10680 10687 10694 10700 10706 10712 10715
10696 10694 10691 10688 10687 10685 10684 10686 10689 10689 10684 10681 10680 10672 10659 10651 10645 10636 10628 10622 10617 10612 10607 10603 10601 10598 10596 10593 10588 10584 10582 10580 10576 10572 10568 10565 10563 10562 10559 10555 10552 10549 10548 10548 10548 10548 10550 10552 10554 10557 10560 10563 10566 10568 10570 10572 10574 10577 10580 10581 10582 10583 10585 10587 10588 10591 10595 10599 10604 10610 10618 10625 10633 10641 10648 10655 10662 10669 10676 10682 10689 10695 10702 10706 10709
10687 10686 10683 10680 10677 10676 10675 10674 10673 10671 10669 10667 10665 10658 10650 10644 10639 10632 10621 10612 10607 10605 10602 10598 10595 10591 10589 10585 10580 10575 10573 10571 10568 10565 10562 10559 10557 10555 10553 10550 10547 10544 10543 10543 10544 10544 10546 10548 10551 10554 10557 10560 10563 10565 10567 10569 10572 10575 10578 10580 10581 10582 10584 10586 10588 10590 10593 10597 10602 10607 10614 10621 10628 10635 10643 10650 10658 10665 10672 10679 10686 10692 10697 10699 10701
10679 10675 10672 10668 10665 10664 10663 10661 10658 10654 10652 10651 10649 10644 10637 10631 10628 10625 10616 10605 10599 10597 10595 10591 10586 10582 10580 10576 10569 10564 10562 10561 10559 10557 10555 10552 10550 10548 10546 10545 10543 10540 10538 10539 10539 10540 10542 10544 10547 10550 10553 10556 10559 10562 10564 10566 10569 10572 10575 10578 10579 10581 10582 10584 10586 10589 10592 10595 10599 10603 10609 10616 10623 10630 10638 10646 10654 10661 10668 10675 10681 10685 10689 10692 10695
10665 10662 10658 10654 10651 10650 10648 10646 10644 10640 10636 10635 10633 10630 10625 10619 10613 10608 10601 10593 10588 10584 10581 10578 10575 10572 10570 10566 10560 10554 10552 10551 10550 10549 10547 10546 10544 10541 10539 10538 10537 10536 10534 10534 10535 10536 10537 10540 10543 10546 10549 10552 10556 10559 10561 10563 10566 10569 10572 10575 10578 10579 10581 10583 10585 10587 10590 10593 10596 10600 10605 10611 10618 10626 10633 10641 10649 10656 10663 10669 10673 10676 10680 10684 10687
10651 10648 10645 10641 10638 10636 10634 10631 10629 10626 10622 10620 10618 10615 10612 10607 10600 10591 10584 10579 10576 10571 10567 10566 10564 10562 10560 10557 10552 10547 10544 10542 10542 10541 10540 10539 10537 10535 10533 10532 10532 10531 10530 10530 10531 10532 10533 10535 10539 10542 10545 10549 10552 10555 10557 10560 10562 10566 10569 10572 10575 10577 10579 10581 10582 10585 10587 10590 10593 10597 10602 10608 10614 10621 10629 10636 10643 10649 10656 10662 10666 10669 10673 10677 10680
10640 10636 10633 10630 10627 10624 10620 10616 10614 10612 10608 10605 10603 10601 10597 10592 10586 10579 10572 10567 10564 10561 10558 10556 10554 10552 10549 10546 10544 10541 10537 10535 10534 10533 10532 10531 10530 10528 10526 10525 10525 10526 10525 10525 10526 10527 10528 10531 10534 10537 10541 10544 10548 10551 10554 10556 10559 10562 10565 10569 10572 10574 10576 10578 10580 10582 10585 10587 10590 10594 10598 10604 10610 10616 10623 10630 10637 10643 10649 10654 10658 10661 10666 10670 10674
10629 10625 10622 10619 10616 10612 10608 10604 10601 10599 10595 10591 10589 10589 10584 10577 10572 10568 10562 10556 10552 10550 10547 10545 10542 10540 10538 10536 10535 10533 10530 10528 10526 10525 10524 10524 10523 10521 10519 10518 10518 10519 10520 10520 10520 10522 10524 10526 10529 10532 10536 10540 10543 10546 10549 10552 10555 10557 10561 10564 10567 10570 10573 10575 10577 10579 10582 10584 10587 10590 10594 10599 10605 10611 10618 10625 10631 10637 10643 10647 10651 10655 10661 10665 10668
10618 10615 10612 10609 10604 10600 10597 10592 10588 10585 10581 10577 10577 10577 10573 10565 10560 10556 10551 10545 10540 10537 10534 10532 10531 10529 10527 10526 10526 10524 10522 10521 10518 10516 10515 10515 10516 10514 10513 10511 10511 10512 10513 10514 10515 10516 10518 10521 10524 10527 10530 10534 10538 10541 10544 10548 10550 10553 10556 10559 10563 10566 10569 10571 10574 10576 10579 10581 10584 10587 10591 10595 10601 10607 10613 10619 10626 10631 10636 10641 10645 10650 10656 10659 10662
10606 10604 10601 10597 10593 10589 10585 10581 10576 10572 10567 10564 10564 10563 10559 10553 10549 10545 10538 10532 10528 10525 10522 10520 10519 10518 10517 10517 10517 10516 10515 10513 10511 10508 10507 10507 10507 10506 10505 10505 10504 10504 10506 10508 10509 10511 10513 10515 10518 10521 10525 10528 10532 10536 10539 10543 10546 10548 10551 10554 10558 10562 10565 10567 10570 10573 10575 10578 10580 10583 10587 10591 10596 10602 10607 10613 10619 10625 10630 10635 10640 10645 10649 10652 10656
10596 10593 10589 10584 10579 10576 10572 10569 10564 10559 10554 10551 10550 10548 10545 10540 10537 10534 10527 10520 10515 10513 10511 10510 10509 10508 10508 10507 10507 10508 10507 10505 10503 10500 10499 10499 10499 10498 10497 10498 10498 10497 10498 10501 10502 10504 10506 10509 10512 10515 10519 10522 10526 10530 10533 10537 10540 10543 10546 10549 10552 10557 10560 10563 10566 10568 10571 10574 10577 10579 10583 10587 10591 10596 10602 10607 10613 10619 10624 10628 10633 10637 10641 10645 10649
10585 10581 10576 10571 10566 10562 10559 10556 10552 10547 10542 10538 10535 10534 10532 10528 10524 10523 10519 10512 10507 10504 10504 10502 10501 10500 10499 10499 10498 10498 10498 10496 10494 10492 10491 10491 10491 10490 10489 10490 10491 10490 10491 10493 10495 10497 10499 10502 10505 10508 10512 10516 10520 10523 10527 10531 10534 10537 10540 10543 10547 10551 10554 10558 10561 10564 10567 10570 10573 10575 10579 10583 10587 10591 10596 10602 10607 10611 10616 10621 10625 10629 10633 10637 10641
10574 10570 10563 10558 10553 10549 10546 10542 10538 10533 10529 10525 10522 10520 10518 10515 10512 10511 10508 10504 10499 10497 10495 10493 10492 10491 10490 10489 10489 10489 10488 10487 10485 10484 10482 10482 10483 10483 10482 10482 10483 10483 10484 10485 10488 10490 10492 10495 10498 10501 10505 10509 10513 10516 10520 10524 10527 10531 10534 10538 10541 10545 10548 10552 10555 10558 10561 10565 10568 10571 10574 10579 10583 10586 10591 10596 10601 10605 10608 10613 10617 10621 10625 10629 10633
10561 10558 10552 10545 10540 10536 10533 10529 10525 10520 10517 10513 10509 10506 10504 10502 10500 10498 10496 10493 10490 10488 10486 10484 10482 10482 10482 10481 10480 10480 10479 10477 10476 10475 10474 10474 10474 10475 10475 10475 10475 10476 10477 10478 10480 10482 10485 10487 10490 10493 10497 10501 10505 10509 10512 10516 10520 10524 10528 10531 10535 10538 10542 10546 10550 10553 10556 10559 10563 10566 10569 10573 10577 10581 10585 10590 10595 10599 10602 10605 10609 10613 10617 10621 10625
10548 10544 10539 10533 10529 10525 10521 10517 10512 10508 10505 10502 10498 10495 10492 10490 10488 10486 10484 10483 10481 10479 10477 10474 10473 10474 10474 10472 10472 10471 10470 10468 10468 10468 10467 10466 10465 10466 10468 10469 10468 10469 10470 10472 10473 10475 10478 10480 10483 10486 10489 10493 10497 10501 10505 10508 10512 10516 10520 10524 10528 10531 10535 10539 10543 10547 10550 10553 10557 10560 10563 10567 10571 10575 10579 10583 10588 10592 10596 10598 10602 10605 10609 10613 10617
10535 10531 10526 10521 10517 10513 10509 10505 10500 10496 10493 10491 10488 10485 10482 10479 10477 10475 10474 10473 10471 10470 10467 10465 10464 10464 10465 10464 10463 10462 10462 10461 10460 10460 10460 10459 10458 10458 10460 10461 10462 10462 10463 10465 10467 10469 10471 10473 10476 10478 10481 10484 10488 10492 10496 10500 10504 10508 10513 10517 10521 10524 10528 10532 10535 10539 10543 10547 10550 10554 10557 10560 10565 10569 10573 10576 10581 10585 10589 10592 10595 10598 10601 10605 10609
10523 10518 10514 10510 10506 10502 10498 10494 10490 10487 10484 10481 10478 10475 10473 10470 10468 10466 10464 10463 10463 10461 10459 10456 10454 10455 10456 10456 10455 10455 10454 10453 10453 10452 10452 10452 10452 10452 10452 10453 10454 10455 10457 10458 10460 10462 10464 10466 10468 10471 10473 10476 10480 10483 10487 10491 10495 10500 10504 10508 10512 10516 10520 10524 10528 10532 10536 10540 10544 10547 10550 10553 10557 10561 10565 10569 10573 10577 10581 10584 10587 10590 10594 10597 10600
10511 10507 10503 10500 10496 10491 10487 10484 10481 10478 10475 10472 10469 10467 10464 10462 10460 10458 10456 10455 10454 10454 10452 10450 10448 10446 10447 10448 10448 10448 10447 10447 10446 10445 10445 10445 10445 10445 10445 10446 10447 10448 10450 10451 10453 10454 10456 10458 10461 10463 10465 10468 10471 10475 10478 10482 10486 10490 10495 10499 10503 10508 10512 10516 10520 10523 10527 10532 10536 10540 10543 10546 10549 10552 10557 10561 10564 10568 10572 10576 10579 10582 10586 10589 10592
10499 10496 10493 10489 10485 10481 10478 10474 10471 10468 10466 10464 10461 10458 10456 10454 10452 10451 10449 10447 10447 10446 10446 10444 10443 10441 10439 10440 10440 10440 10440 10439 10439 10438 10438 10438 10438 10438 10439 10439 10440 10441 10442 10444 10445 10447 10449 10451 10453 10455 10457 10460 10462 10466 10469 10473 10477 10481 10485 10489 10494 10498 10503 10507 10511 10515 10518 10522 10527 10531 10535 10538 10541 10544 10548 10552 10555 10559 10563 10567 10570 10574 10577 10580 10583
10488 10485 10482 10479 10475 10472 10469 10465 10462 10459 10458 10456 10454 10451 10449 10447 10445 10444 10442 10441 10439 10439 10438 10438 10437 10435 10434 10433 10433 10433 10432 10432 10432 10431 10431 10431 10431 10431 10432 10432 10433 10434 10435 10436 10438 10439 10441 10443 10444 10446 10449 10451 10454 10457 10460 10463 10467 10471 10475 10479 10484 10488 10492 10497 10502 10505 10509 10513 10517 10521 10525 10529 10533 10536 10539 10543 10546 10550 10553 10557 10561 10564 10567 10571 10574
10478 10475 10472 10469 10466 10463 10459 10456 10453 10450 10449 10448 10446 10444 10442 10440 10438 10436 10435 10434 10433 10432 10431 10430 10430 10429 10427 10426 10426 10426 10425 10425 10425 10425 10424 10424 10424 10424 10425 10425 10426 10427 10428 10429 10430 10431 10433 10434 10436 10438 10440 10443 10446 10448 10451 10454 10457 10460 10464 10469 10473 10478 10482 10487 10492 10496 10499 10503 10507 10511 10515 10519 10523 10527 10530 10534 10537 10540 10544 10547 10551 10554 10557 10561 10564
10467 10464 10461 10459 10457 10454 10450 10447 10444 10443 10441 10440 10438 10436 10435 10433 10431 10429 10428 10427 10426 10425 10424 10423 10423 10422 10422 10420 10419 10419 10419 10419 10418 10418 10418 10418 10418 10418 10418 10418 10419 10420 10420 10421 10422 10424 10425 10426 10428 10430 10431 10434 10437 10440 10442 10444 10447 10450 10454 10459 10463 10468 10472 10477 10481 10485 10489 10493 10496 10500 10504 10508 10512 10516 10520 10524 10527 10531 10534 10537 10540 10543 10547 10550 10553
10457 10454 10451 10449 10448 10446 10442 10439 10437 10435 10434 10433 10431 10429 10427 10426 10425 10423 10422 10421 10420 10419 10418 10417 10416 10416 10415 10415 10414 10413 10413 10413 10412 10412 10411 10411 10411 10411 10412 10412 10412 10413 10413 10414 10415 10416 10417 10419 10420 10421 10423 10425 10428 10430 10433 10436 10438 10441 10445 10449 10453 10457 10462 10466 10470 10475 10479 10482 10486 10490 10493 10497 10501 10505 10509 10513 10517 10520 10523 10527 10530 10533 10536 10539 10542
10448 10446 10443 10441 10439 10437 10434 10431 10429 10428 10427 10426 10424 10422 10420 10419 10418 10417 10416 10415 10413 10412 10412 10411 10410 10409 10409 10409 10408 10408 10407 10407 10407 10406 10405 10405 10405 10405 10405 10405 10406 10406 10407 10407 10408 10409 10410 10411 10412 10413 10414 10416 10418 10421 10424 10426 10429 10432 10434 10437 10441 10445 10450 10454 10459 10463 10467 10471 10475 10479 10482 10486 10490 10494 10497 10501 10505 10509 10512 10515 10519 10522 10525 10528 10531
10440 10439 10436 10433 10430 10428 10426 10424 10422 10421 10420 10419 10418 10416 10414 10412 10411 10410 10410 10409 10407 10406 10406 10405 10404 10404 10403 10403 10403 10402 10402 10402 10401 10400 10400 10400 10399 10399 10399 10399 10399 10400 10400 10401 10401 10402 10403 10403 10404 10405 10406 10407 10409 10411 10414 10416 10419 10422 10424 10426 10429 10433 10437 10441 10446 10450 10455 10460 10464 10467 10471 10474 10478 10482 10486 10489 10493 10497 10500 10504 10507 10510 10514 10517 10520